Westminster, MD

4:12 AM EST on February 24, 2017 (GMT -0500)
Carroll County Regional-Poage

Weather History for KDMW - July, 2013

Change the Weather History Date:

Tuesday, July 23, 2013

  Actual Average (KTHV) Record (KTHV)
Temperature  
Mean Temperature 79 °F -  
Max Temperature 87 °F 81 °F 97 °F (2011)
Min Temperature 71 °F 65 °F 52 °F (2000)
Cooling Degree Days 14    
Growing Degree Days 29 (Base 50)    
Moisture  
Dew Point 69 °F    
Average Humidity 76    
Maximum Humidity 94    
Minimum Humidity 45    
Precipitation  
Precipitation 0.01 in - - ()
Sea Level Pressure  
Sea Level Pressure 29.73 in    
Wind  
Wind Speed 2 mph (West)    
Max Wind Speed 14 mph    
Max Gust Speed 18 mph    
Visibility 8 miles    
Events Fog , Rain    
Averages and records for this station are not official NWS values.
T = Trace of Precipitation, MM = Missing Value Source: NWS Daily Summary

Daily Weather History Graph

Daily Weather History Graph

Search for Another Location

Airport or City:

Trip Planner

Search our weather history database for the weather conditions in past years. The results will help you decide how hot, cold, wet, or windy it might be!

Date:

Astronomy

Jul. 23, 2013 Rise Set
Actual Time 5:59 AM EDT 8:28 PM EDT
Civil Twilight 5:28 AM EDT 8:59 PM EDT
Nautical Twilight 4:50 AM EDT 9:37 PM EDT
Astronomical Twilight 4:07 AM EDT 10:20 PM EDT
Moon 8:56 PM EDT (7/23) 7:05 AM EDT (7/23)
Length of Visible Light 15h 31m
Length of Day
14h 29m
Full, 99% of the Moon is Illuminated
Jul 23
Full
Jul 29
Last Quarter
Aug 6
New
Aug 14
First Quarter
Aug 20
Full

Hourly Weather History & Observations

Time (EDT) Temp. Heat Index Dew Point Humidity Pressure Visibility Wind Dir Wind Speed Gust Speed Precip Events Conditions
12:05 AM 73.4 °F - 69.8 °F 88% 29.80 in 10.0 mi Calm Calm - N/A Rain Light Rain
12:25 AM 73.4 °F - 69.8 °F 88% 29.80 in 10.0 mi Calm Calm - N/A   Mostly Cloudy
12:45 AM 71.6 °F - 69.8 °F 94% 29.80 in 10.0 mi Calm Calm - N/A   Mostly Cloudy
1:05 AM 71.6 °F - 69.8 °F 94% 29.79 in 10.0 mi Calm Calm - N/A   Overcast
1:25 AM 71.6 °F - 69.8 °F 94% 29.77 in 10.0 mi Calm Calm - N/A   Overcast
1:45 AM 71.6 °F - 69.8 °F 94% 29.77 in 10.0 mi Calm Calm - N/A   Overcast
2:05 AM 71.6 °F - 69.8 °F 94% 29.77 in 10.0 mi Calm Calm - N/A   Overcast
2:25 AM 71.6 °F - 69.8 °F 94% 29.77 in 10.0 mi Calm Calm - N/A   Overcast
2:45 AM 71.6 °F - 69.8 °F 94% 29.77 in 5.0 mi Calm Calm - N/A   Overcast
3:05 AM 71.6 °F - 69.8 °F 94% 29.76 in 2.5 mi Calm Calm - N/A   Overcast
3:25 AM 71.6 °F - 68.0 °F 88% 29.75 in 1.2 mi Calm Calm - N/A   Overcast
3:45 AM 71.6 °F - 69.8 °F 94% 29.75 in 0.2 mi Calm Calm - N/A Fog Fog
4:05 AM 71.6 °F - 69.8 °F 94% 29.74 in 0.2 mi Calm Calm - N/A Fog Fog
4:25 AM 71.6 °F - 69.8 °F 94% 29.74 in 1.2 mi Calm Calm - N/A   Overcast
4:45 AM 71.6 °F - 69.8 °F 94% 29.74 in 1.5 mi Calm Calm - N/A   Overcast
5:05 AM 71.6 °F - 69.8 °F 94% 29.75 in 1.5 mi Calm Calm - N/A Rain Rain
5:25 AM 71.6 °F - 69.8 °F 94% 29.75 in 4.0 mi Calm Calm - N/A   Light Drizzle
5:45 AM 71.6 °F - 69.8 °F 94% 29.75 in 0.8 mi Calm Calm - 0.01 in Rain Heavy Rain
7:05 AM 71.6 °F - 69.8 °F 94% 29.75 in 4.0 mi Calm Calm - N/A   Overcast
7:25 AM 71.6 °F - 69.8 °F 94% 29.75 in 4.0 mi Calm Calm - N/A   Overcast
7:45 AM 71.6 °F - 69.8 °F 94% 29.75 in 5.0 mi WSW 3.5 mph - N/A   Mostly Cloudy
8:05 AM 71.6 °F - 69.8 °F 94% 29.75 in 5.0 mi Calm Calm - N/A   Mostly Cloudy
8:25 AM 71.6 °F - 69.8 °F 94% 29.75 in 7.0 mi Calm Calm - N/A   Overcast
8:45 AM 73.4 °F - 71.6 °F 94% 29.75 in 7.0 mi Calm Calm - N/A   Mostly Cloudy
9:05 AM 73.4 °F - 71.6 °F 94% 29.75 in 10.0 mi Calm Calm - N/A   Mostly Cloudy
9:25 AM 75.2 °F - 71.6 °F 89% 29.74 in 10.0 mi WSW 5.8 mph - N/A   Mostly Cloudy
9:45 AM 75.2 °F - 71.6 °F 89% 29.74 in 10.0 mi West 4.6 mph - N/A   Mostly Cloudy
10:05 AM 75.2 °F - 73.4 °F 94% - 10.0 mi Calm Calm - N/A   Mostly Cloudy
10:25 AM 77.0 °F - 73.4 °F 89% 29.74 in 10.0 mi Calm Calm - N/A   Mostly Cloudy
10:40 AM 77.0 °F - 73.4 °F 89% 29.74 in 10.0 mi Calm Calm - N/A   Mostly Cloudy
11:05 AM 80.6 °F 86.2 °F 75.2 °F 84% 29.73 in 10.0 mi West 3.5 mph - N/A   Mostly Cloudy
11:25 AM 78.8 °F - 73.4 °F 83% 29.73 in 10.0 mi West 8.1 mph - N/A   Mostly Cloudy
11:45 AM 80.6 °F 85.4 °F 73.4 °F 79% 29.73 in 10.0 mi West 10.4 mph - N/A   Scattered Clouds
12:05 PM 80.6 °F 85.4 °F 73.4 °F 79% 29.74 in 10.0 mi WNW 5.8 mph - N/A   Mostly Cloudy
12:25 PM 82.4 °F 88.2 °F 73.4 °F 74% 29.73 in 10.0 mi West 9.2 mph - N/A   Mostly Cloudy
12:45 PM - - - N/A% 29.73 in 10.0 mi West 8.1 mph 16.1 mph N/A   Scattered Clouds
1:05 PM 82.4 °F 86.3 °F 69.8 °F 66% 29.72 in 10.0 mi West 6.9 mph - N/A   Mostly Cloudy
1:25 PM 82.4 °F 86.3 °F 69.8 °F 66% 29.72 in 10.0 mi West 3.5 mph 16.1 mph N/A   Mostly Cloudy
1:45 PM 82.4 °F 86.3 °F 69.8 °F 66% 29.71 in 10.0 mi West 6.9 mph 17.3 mph N/A   Scattered Clouds
2:05 PM 82.4 °F 85.4 °F 68.0 °F 62% 29.72 in 10.0 mi West 10.4 mph - N/A   Scattered Clouds
2:25 PM 80.6 °F 83.9 °F 69.8 °F 70% 29.73 in 10.0 mi WNW 12.7 mph 16.1 mph N/A   Unknown
2:45 PM 82.4 °F 86.3 °F 69.8 °F 66% 29.72 in 10.0 mi West 9.2 mph - N/A   Scattered Clouds
3:05 PM 82.4 °F 86.3 °F 69.8 °F 66% 29.72 in 10.0 mi WNW 9.2 mph - N/A   Scattered Clouds
3:25 PM 84.2 °F 88.4 °F 69.8 °F 62% 29.71 in 10.0 mi West 13.8 mph - N/A   Scattered Clouds
3:45 PM 84.2 °F 88.4 °F 69.8 °F 62% 29.71 in 10.0 mi West 9.2 mph - N/A   Scattered Clouds
4:05 PM 86.0 °F 88.2 °F 66.2 °F 51% 29.71 in 10.0 mi WNW 11.5 mph 18.4 mph N/A   Scattered Clouds
4:25 PM 86.0 °F 88.2 °F 66.2 °F 51% 29.71 in - Calm Calm - N/A   Scattered Clouds
4:45 PM 86.0 °F 88.2 °F 66.2 °F 51% 29.71 in 10.0 mi WNW 12.7 mph 16.1 mph N/A   Scattered Clouds
5:05 PM 86.0 °F 86.6 °F 62.6 °F 45% 29.70 in 10.0 mi NW 9.2 mph 16.1 mph N/A   Scattered Clouds
5:25 PM 87.8 °F 89.4 °F 64.4 °F 46% 29.69 in 10.0 mi WNW 9.2 mph - N/A   Clear
5:45 PM 87.8 °F 89.4 °F 64.4 °F 46% 29.69 in 10.0 mi WNW 9.2 mph - N/A   Clear
6:05 PM 84.2 °F 85.6 °F 64.4 °F 51% 29.69 in 10.0 mi West 10.4 mph - N/A   Clear
6:25 PM 84.2 °F 85.6 °F 64.4 °F 51% 29.69 in 10.0 mi WNW 8.1 mph - N/A   Clear
6:45 PM 84.2 °F 87.3 °F 68.0 °F 58% 29.69 in 10.0 mi Calm Calm - N/A   Scattered Clouds
7:05 PM 84.2 °F 85.6 °F 64.4 °F 51% 29.70 in 10.0 mi West 5.8 mph - N/A   Scattered Clouds
7:25 PM 82.4 °F 84.6 °F 66.2 °F 58% 29.70 in 10.0 mi Calm Calm - N/A   Clear
7:45 PM 82.4 °F 84.6 °F 66.2 °F 58% 29.71 in - Calm Calm - N/A   Clear
8:05 PM 82.4 °F 86.3 °F 69.8 °F 66% 29.71 in 10.0 mi Calm Calm - N/A   Clear
8:25 PM 80.6 °F 83.9 °F 69.8 °F 70% 29.72 in 10.0 mi West 5.8 mph - N/A   Clear
8:45 PM 80.6 °F 82.7 °F 66.2 °F 61% 29.72 in 10.0 mi West 6.9 mph - N/A   Clear
9:05 PM 80.6 °F 82.7 °F 66.2 °F 61% 29.72 in 10.0 mi West 4.6 mph - N/A   Clear
9:25 PM 78.8 °F - 66.2 °F 65% 29.72 in 10.0 mi West 3.5 mph - N/A   Clear
9:45 PM 77.0 °F - 66.2 °F 69% 29.72 in 10.0 mi West 3.5 mph - N/A   Clear
10:05 PM 78.8 °F - 66.2 °F 65% 29.73 in 10.0 mi Calm Calm - N/A   Clear
10:25 PM 78.8 °F - 66.2 °F 65% 29.72 in 10.0 mi Calm Calm - N/A   Clear
10:45 PM 77.0 °F - 66.2 °F 69% 29.73 in 10.0 mi Calm Calm - N/A   Clear
11:10 PM 75.2 °F - 66.2 °F 73% 29.73 in 10.0 mi Calm Calm - N/A   Clear
11:30 PM 75.2 °F - 68.0 °F 78% 29.74 in 10.0 mi Calm Calm - N/A   Clear
11:50 PM 75.2 °F - 64.4 °F 69% 29.74 in 10.0 mi Calm Calm - N/A   Clear